VK2RZ Weather Reports


time (UTC)temp
F
wind
direction
speed
knots
gust
knots
rain 1hr
in
rain 24hr
in
rain mn
in
humidity
%
barometer
mb
20260505064039 66 0 0.0 0.9 0.00 0.00 0.00 5 1017.9
20260505063039 66 257 1.7 1.7 0.00 0.00 0.00 5 1017.6
20260505062039 67 0 0.0 0.0 0.00 0.00 0.00 5 1017.6
20260505061039 67 257 1.7 1.7 0.00 0.00 0.00 5 1017.5
20260505060039 68 252 2.6 2.6 0.00 0.00 0.00 5 1017.4
20260505055039 68 260 1.7 2.6 0.00 0.00 0.00 5 1017.4
20260505054039 69 0 0.0 0.9 0.00 0.00 0.00 5 1017.4
20260505053039 69 237 0.9 2.6 0.00 0.00 0.00 5 1017.3
20260505052039 70 216 3.5 7.0 0.00 0.00 0.00 4 1017.4
20260505051039 70 263 6.1 6.1 0.00 0.00 0.00 5 1017.4
20260505041039 70 256 7.0 9.6 0.00 0.00 0.00 4 1017.0
20260505040038 70 227 3.5 6.1 0.00 0.00 0.00 5 1016.8
20260505035038 70 249 3.5 7.0 0.00 0.00 0.00 4 1017.0
20260505034038 70 231 4.3 4.3 0.00 0.00 0.00 4 1017.0
20260505033038 70 209 1.7 3.5 0.00 0.00 0.00 5 1017.0
20260505032038 70 240 3.5 9.6 0.00 0.00 0.00 5 1017.2
20260505031038 70 233 1.7 3.5 0.00 0.00 0.00 5 1017.2
20260505030038 69 197 1.7 3.5 0.00 0.00 0.00 5 1017.3
20260505025038 69 195 2.6 5.2 0.00 0.00 0.00 5 1017.2
20260505024038 69 240 5.2 5.2 0.00 0.01 0.00 5 1017.4
20260505023038 69 214 2.6 7.0 0.00 0.01 0.00 5 1017.5
20260505022037 68 204 5.2 7.0 0.00 0.02 0.00 5 1017.5
20260505021037 68 276 6.1 10.4 0.00 0.02 0.00 5 1017.6
20260505020037 68 239 6.1 6.1 0.00 0.03 0.00 5 1017.5
20260505015037 68 228 2.6 5.2 0.00 0.03 0.00 5 1017.8
20260505014037 67 254 7.8 9.6 0.00 0.03 0.00 5 1017.9
20260505013037 67 213 5.2 9.6 0.00 0.03 0.00 5 1018.1
20260505012037 67 222 3.5 3.5 0.00 0.03 0.00 5 1018.1
20260505011037 66 235 1.7 7.0 0.00 0.03 0.00 5 1018.0
20260505010037 66 260 6.1 7.0 0.00 0.03 0.00 5 1018.2
20260505005037 66 236 6.1 6.1 0.00 0.03 0.00 5 1018.4
20260505004037 65 230 2.6 6.1 0.00 0.03 0.00 5 1018.5
20260505003037 65 247 9.6 9.6 0.00 0.03 0.00 5 1018.6
20260505002037 65 234 5.2 7.8 0.00 0.03 0.00 5 1018.6
20260505001037 65 228 9.6 12.2 0.00 0.03 0.00 5 1018.6
20260505000037 65 282 6.1 10.4 0.00 0.03 0.00 5 1018.5
20260504235037 65 229 4.3 10.4 0.00 0.03 0.00 5 1018.7
20260504234037 64 268 3.5 7.8 0.00 0.03 0.00 6 1018.8
20260504233037 64 278 3.5 7.0 0.00 0.03 0.00 6 1018.9
20260504232037 64 307 7.0 8.7 0.00 0.03 0.00 6 1019.1
20260504231037 64 258 0.9 2.6 0.00 0.03 0.00 6 1019.3
20260504230037 64 246 1.7 7.0 0.00 0.03 0.00 6 1019.1
20260504225037 63 237 2.6 4.3 0.00 0.03 0.00 6 1019.0
20260504224037 62 266 3.5 3.5 0.00 0.03 0.00 6 1018.9
20260504223037 61 285 7.0 7.0 0.00 0.03 0.00 6 1018.6
20260504222037 61 344 3.5 4.3 0.00 0.03 0.00 6 1018.8
20260504221037 61 266 0.9 3.5 0.00 0.03 0.00 6 1018.9
20260504220037 60 261 4.3 5.2 0.00 0.03 0.00 6 1018.8
20260504215037 59 262 1.7 4.3 0.00 0.03 0.00 7 1018.4
20260504214037 59 268 3.5 7.0 0.00 0.03 0.00 7 1018.1
20260504213037 58 277 6.1 8.7 0.00 0.03 0.00 7 1018.1
20260504212037 57 275 5.2 7.0 0.00 0.03 0.00 7 1018.2
20260504211037 56 255 1.7 4.3 0.00 0.03 0.00 8 1018.1
20260504210037 56 291 1.7 3.5 0.00 0.03 0.00 8 1017.9
20260504205037 56 292 1.7 1.7 0.00 0.03 0.00 8 1017.6
20260504204037 56 302 2.6 2.6 0.00 0.03 0.00 8 1017.6
20260504203037 56 272 1.7 1.7 0.00 0.03 0.00 8 1017.4
20260504202037 57 267 0.9 1.7 0.00 0.03 0.00 8 1017.3
20260504201037 57 264 1.7 2.6 0.00 0.03 0.00 8 1017.2
20260504200037 58 239 2.6 3.5 0.00 0.03 0.00 8 1017.1
20260504195037 58 244 4.3 5.2 0.00 0.03 0.00 8 1016.9
20260504194037 58 255 2.6 4.3 0.00 0.03 0.00 8 1016.8
20260504193037 58 262 1.7 2.6 0.00 0.03 0.00 8 1016.7
20260504192037 59 244 2.6 4.3 0.00 0.03 0.00 7 1016.7
20260504191037 59 251 4.3 7.0 0.00 0.03 0.00 7 1016.7
20260504190036 59 247 3.5 7.0 0.00 0.03 0.00 7 1016.7
20260504185036 59 243 1.7 3.5 0.00 0.03 0.00 7 1016.6
20260504184036 59 255 1.7 2.6 0.00 0.03 0.00 7 1016.4
20260504183036 59 246 0.9 4.3 0.00 0.03 0.00 7 1016.2
20260504182036 59 249 2.6 4.3 0.00 0.03 0.00 7 1016.2
20260504181036 59 248 1.7 3.5 0.00 0.03 0.00 7 1016.0
20260504180036 60 253 3.5 3.5 0.00 0.03 0.00 7 1016.0
20260504175036 60 260 4.3 6.1 0.00 0.03 0.00 7 1015.9
20260504174036 60 247 3.5 7.8 0.00 0.03 0.00 7 1015.9
20260504173036 60 231 2.6 7.0 0.00 0.03 0.00 7 1016.0
20260504172036 61 241 1.7 3.5 0.00 0.03 0.00 7 1016.1
20260504171036 61 259 6.1 6.1 0.00 0.03 0.00 7 1016.3
20260504151035 62 249 3.5 4.3 0.00 0.03 0.00 8 1016.3
20260504141034 64 241 2.6 2.6 0.00 0.03 0.00 8 1016.5
20260504081028 66 0 0.0 0.0 0.00 0.03 0.03 8 1015.6